Weather in Izola

Slovenia     45°32′01″N   13°39′31″E
temp.,
°C
wind,
m/s
gust,
m/s
humid.,
%
clouds,
%
prec.,
mm/h
press.,
hPa
HPBL,
m
6 march, sat
sat601:00+5e7155987 0.0 1026705
04:00+3e6156099 0.3 1028695
07:00+2ene5164884 0.3 1030789
10:00+6ene6123079 0.0 1031905
13:00+8ne683143 0.0 10301083
16:00+8ne57360 0.0 1029937
19:00+3ne35520 0.0 1030181
22:00+2ene24610 0.0 1031115
7 march, sun
sun701:00+1e22630 0.0 103064
04:000e22630 0.0 102847
07:000e12560 0.0 102841
10:00+7nw01330 0.0 1026425
13:00+9wnw21340 0.0 1024714
16:00+8wnw224425 0.0 1021472
19:00+4nne016027 0.0 102148
22:00+3ese11628 0.0 102131
8 march, mon
mon801:00+2ese11654 0.0 102030
04:00+2e116944 0.0 101928
07:00+2ene116962 0.0 101931
10:00+9nnw11520 0.0 1018496
13:00+11wnw22470 0.0 1018912
16:00+10nw22540 0.0 1016425
19:00+6nnw11700 0.0 101843
22:00+5e12740 0.0 101949
9 march, tue
tue901:00+4ene23710 0.0 101976
04:00+3ene23740 0.0 101892
07:00+2ene247337 0.0 1018114
10:00+8ene2353100 0.0 1018374
13:00+10ne3445100 0.0 1017980
16:00+10ne464884 0.0 1016823
19:00+6ene376342 0.0 1018225
22:00+4ene22690 0.0 102071
10 march, wed
wed1001:00+3ene24720 0.0 1021122
04:00+3ene25710 0.0 1021122
07:00+3ene23700 0.0 102297
10:00+10ne13460 0.0 1022434
13:00+12nw22390 0.0 1022944
16:00+11wnw23470 0.0 1021438
19:00+6se11655 0.0 102245
22:00+6ese126275 0.0 102422